Regional Weather Roundup
Issued by NWS

Home | Current Version | Previous Version | Text Only | Print | Product List | Glossary On
Versions: 1 2 3 4 5 6 7 8 9 10 11 12 13 14 15 16 17 18 19 20 21 22 23 24 25 26 27 28 29 30 31 32 33 34 35 36 37 38 39 40 41 42 43 44 45 46 47 48 49 50
000
ASUS44 KBMX 212110
RWRAL

ALABAMA REGIONAL WEATHER ROUNDUP
NATIONAL WEATHER SERVICE BIRMINGHAM AL
300 PM CST TUE FEB 21 2017

NOTE: "FAIR" INDICATES FEW OR NO CLOUDS BELOW 12,000 FEET
WITH NO SIGNIFICANT WEATHER AND/OR OBSTRUCTIONS TO VISIBILITY.

THE REMARK "TC" DENOTES TEMPERATURE IN DEGREES CELSIUS.

ALZ001>011-014-016>018-020-212200-
NORTH ALABAMA

CITY           SKY/WX    TMP DP  RH WIND       PRES   REMARKS
MUSCLE SHOALS  LGT RAIN  63  56  78 SE9       29.92S
HUNTSVILLE     LGT RAIN  61  58  90 SE12      29.94F
DECATUR        LGT RAIN  60  58  92 SE14      29.95R
HALEYVILLE     LGT RAIN  58  56  93 SE12      29.94R
GADSDEN        LGT RAIN  58  57  97 NE3       29.99F FOG
$$

ALZ012-013-022-023-030>036-040>044-212200-
WEST CENTRAL ALABAMA

CITY           SKY/WX    TMP DP  RH WIND       PRES   REMARKS
TUSCALOOSA     LGT RAIN  60  59  96 E7G17     29.89F
$$

ALZ015-024>027-033>036-040>044-212200-
CENTRAL ALABAMA

CITY           SKY/WX    TMP DP  RH WIND       PRES   REMARKS
BIRMINGHAM     LGT RAIN  59  57  93 SE9       29.97S
MONTGOMERY     LGT RAIN  62  57  83 E8        29.94F
SHELBY CO ARPT LGT RAIN  59  59 100 VRB3      29.95F
MAXWELL AFB    LGT RAIN  61  61 100 E3        29.93F
GREENVILLE     RAIN      61  58  90 E9        29.90F FOG
$$

ALZ019-021-028-029-037-038-045>048-212200-
EAST CENTRAL ALABAMA

CITY           SKY/WX    TMP DP  RH WIND       PRES   REMARKS
ANNISTON       LGT RAIN  60  58  92 NE7       29.98F
ALEXANDER CITY PTSUNNY   58  57  96 E5        29.97F
AUBURN         LGT RAIN  57  57 100 NE5       29.98F
$$

ALZ051>064-212200-
SOUTHWEST ALABAMA

CITY           SKY/WX    TMP DP  RH WIND       PRES   REMARKS
MOBILE         CLOUDY    63  60  90 E3        29.87F
BROOKLEY FIELD LGT RAIN  65  63  93 E8        29.88F
EVERGREEN      LGT RAIN  62  60  93 SE7       29.90F
$$

ALZ049-050-065>069-212200-
SOUTHEAST ALABAMA

CITY           SKY/WX    TMP DP  RH WIND       PRES   REMARKS
DOTHAN         HVY RAIN  61  61 100 NW10      29.98R VSB 1
OZARK          LGT RAIN  61  61 100 N5        29.95S
TROY           LGT RAIN  60  60 100 E3        29.95F FOG
EUFAULA        RAIN      63  62  97 W6        29.94F FOG
$$



USA.gov is the U.S. government's official web portal to all federal, state and local government web resources and services.